When you browse on this site, cookies collect data to enhance your experience and personalize the content and advertising you see.
Visit our Privacy Policy to learn more. By continuing to use the site, you agree to this use of cookies and data.
  • In Spain
  • List of Countries
  • For 7 days
  • Water Temperature
  • Satellite Maps
  • Weather Map
  • Weather Widgets
  • user-avatar
    Login

    Hourly Weather Sydney

    Today, 18 April, Thursday

    Time Temperature Precipitation Wind Pressure Humidity
    00:00 +20°C° 0 mm 1 mps 767 mmHg 82%
    01:00 +19°C° 0 mm 2 mps 767 mmHg 84%
    02:00 +18°C° 0 mm 2 mps 767 mmHg 85%
    03:00 +18°C° 0 mm 2 mps 767 mmHg 87%
    04:00 +17°C° 0 mm 2 mps 767 mmHg 88%
    05:00 +17°C° 0 mm 2 mps 767 mmHg 87%
    06:00 +17°C° 0 mm 2 mps 767 mmHg 85%
    07:00 +17°C° 0 mm 2 mps 767 mmHg 84%
    08:00 +20°C° 0 mm 2 mps 767 mmHg 75%
    09:00 +23°C° 0 mm 2 mps 767 mmHg 66%
    10:00 +25°C° 0 mm 2 mps 768 mmHg 53%
    11:00 +27°C° 0 mm 2 mps 768 mmHg 49%
    12:00 +28°C° 0 mm 2 mps 767 mmHg 44%
    13:00 +29°C° 0 mm 2 mps 767 mmHg 40%
    14:00 +28°C° 0 mm 2 mps 767 mmHg 45%
    15:00 +27°C° 0 mm 3 mps 767 mmHg 50%
    16:00 +26°C° 0 mm 3 mps 767 mmHg 55%
    17:00 +25°C° 0 mm 3 mps 767 mmHg 63%
    18:00 +24°C° 0 mm 3 mps 768 mmHg 70%
    19:00 +23°C° 0 mm 2 mps 768 mmHg 78%
    20:00 +21°C° 0 mm 2 mps 769 mmHg 79%
    21:00 +21°C° 0 mm 2 mps 769 mmHg 81%
    22:00 +22°C° 0 mm 1 mps 769 mmHg 82%
    23:00 +20°C° 0 mm 2 mps 769 mmHg 84%

    Tomorrow, 19 April, Friday

    Time Temperature Precipitation Wind Pressure Humidity
    00:00 +20°C° 0 mm 2 mps 770 mmHg 86%
    01:00 +20°C° 0 mm 2 mps 770 mmHg 88%
    02:00 +19°C° 0 mm 2 mps 769 mmHg 89%
    03:00 +19°C° 0 mm 2 mps 769 mmHg 89%
    04:00 +19°C° 0 mm 2 mps 769 mmHg 89%
    05:00 +19°C° 0 mm 2 mps 769 mmHg 89%
    06:00 +19°C° 0 mm 2 mps 770 mmHg 89%
    07:00 +19°C° 0 mm 2 mps 770 mmHg 89%
    08:00 +21°C° 0 mm 2 mps 770 mmHg 81%
    09:00 +24°C° 0 mm 2 mps 770 mmHg 73%
    10:00 +25°C° 0 mm 1 mps 770 mmHg 64%
    11:00 +26°C° 0 mm 2 mps 770 mmHg 61%
    12:00 +27°C° 0 mm 2 mps 769 mmHg 57%
    13:00 +28°C° 0 mm 2 mps 769 mmHg 53%
    14:00 +27°C° 0 mm 2 mps 769 mmHg 55%
    15:00 +27°C° 0 mm 3 mps 768 mmHg 58%
    16:00 +26°C° 0 mm 3 mps 768 mmHg 60%
    17:00 +25°C° 0 mm 3 mps 768 mmHg 65%
    18:00 +24°C° 0 mm 3 mps 769 mmHg 70%
    19:00 +23°C° 0 mm 2 mps 769 mmHg 75%
    20:00 +23°C° 0 mm 2 mps 769 mmHg 77%
    21:00 +21°C° 0 mm 2 mps 770 mmHg 80%
    22:00 +22°C° 0 mm 1 mps 770 mmHg 83%
    23:00 +22°C° 0 mm 1 mps 770 mmHg 84%

    Day after tomorrow, 20 April, Saturday

    Time Temperature Precipitation Wind Pressure Humidity
    00:00 +21°C° 0 mm 1 mps 769 mmHg 86%
    01:00 +21°C° 0 mm 1 mps 769 mmHg 87%
    02:00 +21°C° 0 mm 1 mps 769 mmHg 88%
    03:00 +20°C° 0 mm 1 mps 769 mmHg 89%
    04:00 +20°C° 0 mm 1 mps 769 mmHg 90%
    05:00 +20°C° 0 mm 1 mps 769 mmHg 91%
    06:00 +19°C° 0 mm 2 mps 769 mmHg 91%
    07:00 +19°C° 0 mm 2 mps 769 mmHg 91%
    08:00 +22°C° 0 mm 1 mps 769 mmHg 82%
    09:00 +24°C° 0 mm 1 mps 770 mmHg 73%
    10:00 +26°C° 0 mm 1 mps 770 mmHg 64%
    11:00 +27°C° 0 mm 1 mps 769 mmHg 61%
    12:00 +27°C° 0 mm 2 mps 768 mmHg 59%
    13:00 +28°C° 0 mm 3 mps 768 mmHg 57%
    14:00 +27°C° 0 mm 3 mps 768 mmHg 59%
    15:00 +27°C° 0 mm 4 mps 767 mmHg 61%
    16:00 +26°C° 0 mm 4 mps 767 mmHg 63%
    17:00 +25°C° 0 mm 4 mps 767 mmHg 69%
    18:00 +25°C° 0 mm 3 mps 767 mmHg 75%
    19:00 +24°C° 0 mm 3 mps 768 mmHg 80%
    20:00 +22°C° 0.3 mm 3 mps 768 mmHg 82%
    21:00 +22°C° 0.3 mm 3 mps 768 mmHg 84%
    22:00 +21°C° 0.3 mm 3 mps 768 mmHg 86%
    23:00 +21°C° 0.1 mm 3 mps 768 mmHg 87%

    21 April, Sunday

    Time Temperature Precipitation Wind Pressure Humidity
    00:00 +21°C° 0.1 mm 3 mps 768 mmHg 88%
    01:00 +21°C° 0.1 mm 2 mps 768 mmHg 89%
    02:00 +20°C° 0 mm 2 mps 767 mmHg 90%
    03:00 +20°C° 0 mm 2 mps 767 mmHg 91%
    04:00 +20°C° 0 mm 2 mps 767 mmHg 92%
    05:00 +20°C° 0 mm 2 mps 767 mmHg 92%
    06:00 +20°C° 0 mm 2 mps 767 mmHg 91%
    07:00 +19°C° 0 mm 2 mps 768 mmHg 91%
    08:00 +21°C° 0 mm 2 mps 768 mmHg 83%
    09:00 +24°C° 0 mm 3 mps 767 mmHg 74%
    10:00 +25°C° 0 mm 3 mps 767 mmHg 66%
    11:00 +26°C° 0 mm 4 mps 767 mmHg 61%
    12:00 +27°C° 0 mm 4 mps 766 mmHg 56%
    13:00 +28°C° 0 mm 4 mps 766 mmHg 50%
    14:00 +28°C° 0 mm 5 mps 765 mmHg 54%
    15:00 +27°C° 0 mm 5 mps 765 mmHg 57%
    16:00 +27°C° 0 mm 6 mps 765 mmHg 60%
    17:00 +26°C° 0 mm 5 mps 765 mmHg 66%
    18:00 +25°C° 0 mm 5 mps 766 mmHg 73%
    19:00 +23°C° 0 mm 5 mps 766 mmHg 79%
    20:00 +23°C° 0 mm 5 mps 766 mmHg 80%
    21:00 +22°C° 0 mm 5 mps 766 mmHg 82%
    22:00 +22°C° 0 mm 5 mps 767 mmHg 83%
    23:00 +22°C° 0 mm 4 mps 766 mmHg 84%

    22 April, Monday

    Time Temperature Precipitation Wind Pressure Humidity
    00:00 +21°C° 0 mm 4 mps 766 mmHg 85%
    01:00 +21°C° 0 mm 3 mps 766 mmHg 86%
    02:00 +21°C° 0 mm 3 mps 766 mmHg 86%
    03:00 +20°C° 0 mm 3 mps 765 mmHg 87%
    04:00 +20°C° 0 mm 2 mps 765 mmHg 87%
    05:00 +20°C° 0 mm 2 mps 766 mmHg 87%
    06:00 +20°C° 0 mm 2 mps 766 mmHg 86%
    07:00 +20°C° 0 mm 2 mps 767 mmHg 86%
    08:00 +21°C° 0 mm 2 mps 767 mmHg 79%
    09:00 +24°C° 0 mm 3 mps 767 mmHg 73%
    10:00 +25°C° 0 mm 3 mps 767 mmHg 66%
    11:00 +26°C° 0 mm 3 mps 767 mmHg 61%
    12:00 +27°C° 0 mm 2 mps 766 mmHg 57%
    13:00 +28°C° 0 mm 2 mps 766 mmHg 52%
    14:00 +27°C° 0 mm 3 mps 766 mmHg 53%
    15:00 +27°C° 0 mm 3 mps 766 mmHg 55%
    16:00 +27°C° 0 mm 3 mps 766 mmHg 57%
    17:00 +26°C° 0 mm 3 mps 766 mmHg 63%
    18:00 +25°C° 0 mm 3 mps 767 mmHg 69%
    19:00 +24°C° 0 mm 2 mps 768 mmHg 75%
    20:00 +23°C° 0 mm 2 mps 768 mmHg 77%
    21:00 +23°C° 0 mm 1 mps 768 mmHg 80%
    22:00 +23°C° 0 mm 1 mps 769 mmHg 83%
    23:00 +22°C° 0.1 mm 1 mps 768 mmHg 84%

    23 April, Tuesday

    Time Temperature Precipitation Wind Pressure Humidity
    00:00 +21°C° 0.1 mm 2 mps 768 mmHg 85%
    01:00 +21°C° 0.1 mm 2 mps 768 mmHg 86%
    02:00 +21°C° 0.1 mm 2 mps 768 mmHg 87%
    03:00 +20°C° 0.1 mm 2 mps 768 mmHg 88%
    04:00 +21°C° 0.1 mm 1 mps 768 mmHg 89%
    05:00 +20°C° 0 mm 2 mps 768 mmHg 90%
    06:00 +20°C° 0 mm 2 mps 769 mmHg 90%
    07:00 +20°C° 0 mm 2 mps 769 mmHg 91%
    08:00 +21°C° 0 mm 2 mps 769 mmHg 83%
    09:00 +24°C° 0 mm 2 mps 769 mmHg 75%
    10:00 +26°C° 0 mm 2 mps 769 mmHg 67%
    11:00 +26°C° 0 mm 2 mps 769 mmHg 63%
    12:00 +27°C° 0 mm 2 mps 768 mmHg 59%
    13:00 +28°C° 0 mm 2 mps 768 mmHg 55%
    14:00 +27°C° 0 mm 2 mps 767 mmHg 58%
    15:00 +27°C° 0 mm 3 mps 767 mmHg 61%
    16:00 +26°C° 0 mm 3 mps 767 mmHg 64%
    17:00 +25°C° 0 mm 3 mps 768 mmHg 69%
    18:00 +24°C° 0 mm 2 mps 768 mmHg 74%
    19:00 +23°C° 0 mm 2 mps 768 mmHg 80%
    20:00 +23°C° 0 mm 2 mps 768 mmHg 82%
    21:00 +22°C° 0 mm 1 mps 768 mmHg 84%
    22:00 +22°C° 0 mm 1 mps 768 mmHg 86%
    23:00 +22°C° 0 mm 1 mps 768 mmHg 87%
    Show more